Helicity
151 230 211 91 142 184 191 176 155 153 127 149 121 102 92 73 65 40 38 -3 29 144 339 561 686 707 687 703 650 571 472 438 347 313 261 199 171 153 134 162 222 198 175 155
243 213 96 151 170 182 171 123 130 131 70 130 107 84 74 63 38 22 19 -8 79 207 354 482 628 719 718 631 639 587 467 450 390 303 233 145 109 91 115 192 178 155 148 158
225 153 103 137 133 148 123 147 113 134 108 101 115 104 75 36 -0 60 140 47 160 373 546 617 714 613 610 536 616 519 415 412 359 293 218 149 108 119 112 100 77 118 118 106
133 71 82 142 172 105 126 82 103 114 118 133 141 124 132 77 128 143 282 454 568 572 621 606 596 614 564 527 391 319 333 378 314 261 185 134 73 78 102 91 92 81 69 61
137 103 118 154 79 102 136 88 99 93 125 114 145 137 142 100 124 150 266 387 458 522 552 561 535 485 468 472 441 383 297 234 252 221 173 117 103 44 66 64 51 53 49 48
124 116 109 74 86 96 95 123 152 147 118 196 112 135 178 124 77 178 336 413 521 513 549 539 479 396 379 377 273 186 172 122 142 106 78 75 83 75 58 38 17 12 10 50
122 73 90 117 130 59 118 120 175 200 202 188 117 129 189 178 247 229 297 344 412 388 326 457 555 472 439 379 237 176 84 39 46 56 32 46 60 65 53 52 35 31 16 34
121 139 67 70 111 70 86 141 161 196 194 132 160 190 180 203 192 168 182 228 182 96 49 61 48 98 296 433 25 10 -33 -29 -1 12 42 27 21 15 31 43 47 39 25 34
79 74 53 69 101 92 73 126 107 167 158 162 158 242 217 227 161 95 86 61 80 86 -39 -2 33 31 21 -5 18 -6 -27 -25 -35 -29 -14 11 41 63 44 53 53 57 42 20
140 141 159 149 173 147 121 107 150 193 144 130 132 178 217 122 119 86 66 38 33 25 37 23 17 35 28 1 -5 3 -8 -35 -73 -70 -42 9 28 44 45 47 47 57 48 36
162 167 173 200 153 189 205 214 211 168 224 209 198 160 178 102 112 103 53 27 69 121 90 84 37 24 14 6 -14 26 11 -13 -9 9 7 10 30 58 58 51 54 57 49 47
180 179 145 117 112 157 137 167 244 237 189 268 298 303 180 167 213 76 46 131 195 171 141 80 48 52 39 28 27 24 -1 -8 -8 11 33 51 63 69 64 73 85 81 73 61
106 150 154 95 132 150 175 230 231 238 269 308 325 390 177 283 168 117 258 275 259 207 156 98 52 64 42 45 53 54 24 5 10 21 31 59 74 90 106 113 112 126 131 125
172 169 142 135 99 115 182 191 233 267 293 323 387 273 193 204 244 337 384 425 320 221 162 124 109 97 84 75 75 46 32 35 31 30 41 42 84 117 134 143 146 156 167 183
154 130 150 148 136 147 128 193 230 224 285 326 230 149 238 207 301 400 408 337 273 200 165 141 137 135 89 84 78 69 75 44 9 -15 14 90 95 79 91 141 167 163 174 207
214 188 201 158 170 158 96 150 186 179 177 143 157 184 201 304 354 342 302 292 245 202 180 174 179 157 88 90 82 76 35 3 -30 -8 37 18 17 34 58 79 100 126 152 182
209 285 230 178 104 108 120 224 173 174 220 196 166 164 231 262 278 268 256 225 201 200 197 189 158 71 86 83 60 63 59 30 34 38 26 -3 -8 -0 16 20 51 132 159 169
218 305 221 191 156 104 185 213 172 158 170 191 196 167 157 192 224 212 192 173 194 206 224 193 106 76 59 50 52 50 66 93 84 63 54 53 18 -1 16 29 44 57 94 130
310 315 190 133 117 150 211 164 139 141 108 121 150 202 211 215 222 203 159 165 175 196 186 139 121 114 114 106 97 88 94 112 74 22 38 42 26 20 38 57 62 50 63 73
184 161 163 181 139 108 112 155 180 146 96 124 150 146 150 163 141 112 110 111 117 123 116 127 150 151 142 116 111 102 59 18 37 51 42 28 30 37 44 50 52 66 68 64
263 241 197 224 190 178 146 175 148 180 76 83 119 152 155 155 128 126 153 115 93 109 120 115 123 123 128 134 112 58 25 29 29 37 23 33 39 35 54 64 60 58 59 55
224 228 225 251 226 131 152 140 85 69 92 108 141 140 145 212 202 176 130 59 58 72 94 86 87 111 131 124 73 41 44 52 37 19 31 28 37 42 33 23 30 40 35 23
198 182 199 154 111 115 108 81 96 86 94 107 124 126 181 231 246 193 129 99 102 109 74 68 70 68 102 101 70 64 61 52 47 31 9 -3 -14 -34 -33 -20 -15 -8 -5 7
187 185 168 170 109 106 120 135 118 121 122 133 144 147 151 194 158 138 136 119 98 70 55 46 57 97 116 79 63 55 54 60 45 20 -3 -28 -39 -38 -27 -27 -28 -24 -22 -32
142 170 174 134 114 122 102 125 152 138 136 149 149 115 106 110 109 107 109 99 77 58 43 55 92 94 76 77 83 79 72 51 21 10 -9 -17 -24 -30 -41 -39 -31 -43 -31 -31
162 112 123 65 74 94 77 101 105 90 90 98 136 112 81 102 107 112 104 83 60 46 50 68 77 59 70 72 85 98 82 44 21 7 -7 -18 -19 -25 -21 -32 -37 3 15 32
Wind_Speed
41 49 55 51 45 55 69 73 76 71 72 80 86 97 91 82 77 86 87 82 63 52 41 37 39 40 41 41 41 42 45 49 48 51 54 55 60 60 60 59 61 60 63 68
52 60 50 49 52 59 65 75 76 70 64 69 85 99 95 83 81 86 90 81 53 42 36 32 35 38 42 45 46 48 49 53 54 53 54 55 61 60 63 64 65 61 65 68
53 49 41 44 49 54 58 67 76 77 71 70 85 98 95 87 85 68 68 59 42 38 34 38 39 38 40 45 51 52 55 56 58 58 59 61 59 64 66 73 71 70 68 66
53 45 46 48 53 54 68 57 69 81 83 94 61 107 99 81 72 69 62 50 43 36 35 37 39 42 47 50 51 54 59 62 62 62 64 66 69 73 72 78 78 77 73 69
50 52 50 49 51 48 64 59 73 82 78 83 73 74 76 73 71 61 52 45 39 33 33 38 43 45 47 51 54 57 59 63 66 68 67 69 74 76 79 81 83 81 77 73
55 46 50 51 53 53 52 62 60 60 70 83 84 61 73 68 58 49 44 41 40 41 39 42 46 47 50 52 55 58 62 65 68 69 71 75 79 83 86 86 86 84 83 83
50 52 49 45 55 55 47 51 65 68 64 71 57 64 60 49 42 35 38 41 42 46 45 48 53 54 57 60 62 65 68 71 73 73 73 76 79 81 82 84 85 89 88 87
56 61 41 37 38 44 41 41 52 70 67 70 59 67 60 33 29 29 32 35 40 42 47 50 52 55 62 67 66 67 70 71 74 75 77 78 80 81 81 81 86 88 89 89
48 52 43 39 36 32 42 46 44 53 54 66 59 51 43 27 28 24 29 38 38 33 45 48 52 54 59 65 68 71 74 74 75 75 76 78 80 81 83 84 81 80 85 88
53 65 46 42 37 38 37 30 47 46 63 69 58 56 53 27 21 22 37 39 40 38 37 44 52 58 59 62 66 68 70 73 73 76 78 81 81 81 80 81 82 84 84 86
51 53 55 45 45 44 42 42 43 42 45 60 71 61 37 22 23 23 35 33 30 33 41 48 56 59 60 65 69 70 71 72 74 75 76 78 79 77 76 79 81 82 84 84
43 46 55 56 53 50 44 45 40 49 55 52 60 69 38 36 22 15 23 29 30 36 43 51 58 64 67 71 72 74 74 75 76 76 76 75 76 77 78 80 80 80 81 82
40 50 61 62 49 44 49 46 45 52 54 52 63 62 36 32 19 21 24 27 33 37 45 53 58 63 68 71 72 72 72 73 73 73 73 74 74 76 77 78 78 79 79 79
44 52 53 58 54 44 49 48 47 49 55 65 50 55 50 35 28 25 25 27 32 40 47 51 57 61 64 67 66 66 68 69 70 71 71 70 72 74 75 75 76 75 74 74
46 60 57 59 55 54 61 57 52 52 50 66 63 43 44 32 23 22 21 25 33 42 47 51 55 58 61 62 61 62 63 65 66 65 67 71 72 71 71 71 71 71 69 68
49 62 58 67 62 63 74 59 48 55 55 48 51 44 33 29 22 23 26 31 36 42 47 51 54 56 57 55 55 57 58 58 59 63 68 70 71 71 69 67 66 65 67 67
53 55 57 66 55 58 70 45 47 53 50 46 45 43 22 27 26 29 32 36 40 44 47 48 48 49 48 47 50 53 54 54 57 60 63 65 65 63 63 66 70 61 64 67
54 50 52 56 50 58 57 47 47 45 42 41 39 32 25 24 29 32 36 39 44 46 46 44 41 39 41 43 45 46 49 52 54 57 56 58 60 60 61 65 62 63 66 67
48 44 53 54 55 64 53 42 41 42 43 33 29 27 27 30 35 44 40 39 38 35 33 31 34 35 38 40 41 41 44 46 44 44 48 48 49 54 56 58 58 62 62 63
37 39 48 49 60 62 49 34 31 38 55 30 29 26 25 28 45 43 29 26 25 25 27 29 31 33 35 35 35 34 32 32 36 37 36 35 38 40 46 46 48 45 47 52
43 42 46 54 60 58 37 27 33 41 43 27 29 30 27 34 35 23 16 18 19 21 24 27 28 27 26 25 24 23 24 26 25 26 28 35 37 37 34 32 43 48 47 51
43 42 49 49 52 63 24 27 27 29 30 32 35 34 28 21 18 12 12 13 16 18 21 24 24 23 23 23 20 18 18 17 17 14 26 35 32 29 30 37 43 44 55 59
48 41 41 36 34 30 25 28 27 29 33 35 32 30 21 14 11 11 14 16 19 18 21 22 21 21 20 18 16 15 15 14 13 16 23 29 32 38 45 55 58 64 65 66
41 33 38 31 29 27 26 27 30 34 32 29 27 24 20 17 17 18 18 15 16 17 19 18 17 17 18 18 15 15 14 12 16 22 28 33 44 54 62 67 69 69 70 70
36 26 25 30 30 28 27 26 25 27 25 25 23 19 22 25 20 19 18 14 16 17 15 14 18 19 17 14 14 14 15 17 25 31 36 45 53 59 63 67 70 70 71 72
34 26 19 32 17 26 21 16 17 18 21 20 19 17 19 23 18 12 10 11 12 11 14 17 17 14 15 15 15 17 21 29 35 41 47 51 56 59 62 64 66 69 69 71
Wind_Direction
302 294 292 296 295 300 301 300 300 305 309 306 303 301 305 312 313 311 310 314 316 313 317 317 317 319 320 321 320 318 316 317 315 309 305 303 300 302 306 309 307 305 305 302
299 292 295 298 298 299 299 299 300 307 310 308 306 302 306 312 312 312 309 312 310 307 306 312 317 321 322 322 323 321 318 317 314 311 308 305 303 303 306 306 305 306 305 302
290 302 310 300 298 301 300 299 301 304 310 309 307 303 307 313 316 320 322 321 322 319 314 315 316 323 326 324 323 319 319 318 316 313 309 306 306 307 305 303 301 303 303 302
300 303 296 297 298 301 299 305 303 304 308 304 313 304 308 314 322 325 326 329 327 327 329 329 326 322 314 313 319 318 318 316 318 317 307 306 303 301 303 302 300 299 301 301
302 308 307 298 298 302 302 305 302 304 304 307 307 307 308 320 320 329 334 336 342 343 340 331 324 325 322 322 319 318 322 321 317 313 312 310 304 300 301 301 298 297 299 301
297 302 304 304 306 304 308 308 309 309 307 303 308 304 310 317 321 329 338 341 342 335 338 333 331 330 324 324 325 323 318 320 312 312 312 309 306 302 300 299 298 297 296 296
308 300 301 299 302 308 305 307 306 307 308 307 317 314 314 323 330 333 335 334 336 332 333 330 323 319 318 321 324 323 319 316 313 311 314 315 313 312 308 305 303 299 297 296
305 305 313 317 304 309 307 303 303 307 309 311 317 311 315 327 334 334 337 338 343 338 328 330 330 317 314 320 318 322 317 317 313 315 315 313 312 312 311 310 307 303 299 296
304 304 311 312 314 314 314 309 310 306 312 313 316 319 322 326 325 324 326 332 336 345 320 323 324 339 326 319 320 319 320 319 312 317 316 316 319 319 313 313 314 311 303 298
298 299 305 307 311 311 307 317 314 314 310 312 318 315 313 312 311 308 314 321 326 329 340 326 325 333 332 323 324 329 326 322 318 318 317 317 318 320 321 318 313 308 304 301
290 291 299 303 296 294 305 303 311 313 309 311 313 316 325 316 304 307 309 318 326 334 327 326 323 329 338 336 332 336 330 326 325 324 322 319 324 327 327 319 314 310 305 303
298 301 297 299 302 301 296 298 297 299 308 306 309 308 321 315 306 305 310 315 323 331 330 325 323 330 332 332 333 329 326 328 328 329 330 331 330 329 325 321 318 315 310 307
293 296 297 305 302 297 295 298 301 302 303 296 304 312 332 330 318 304 313 321 325 329 330 327 327 329 330 332 333 333 332 332 335 336 335 335 333 331 328 328 326 322 317 314
292 288 289 289 299 304 298 300 302 300 298 302 299 307 312 312 306 310 317 320 326 327 328 331 332 330 330 331 333 336 338 342 343 343 343 340 339 339 338 337 335 332 328 324
288 286 289 290 296 295 295 298 299 298 297 300 307 304 311 311 303 308 319 324 325 325 326 328 329 330 329 332 334 337 341 342 349 350 352 352 352 350 350 348 347 345 340 335
285 286 290 290 293 293 290 295 302 301 301 296 304 308 318 323 322 318 317 319 320 323 325 326 329 331 333 336 339 343 345 349 355 358 360 4 5 4 359 355 351 348 346 344
280 283 288 291 297 294 291 295 298 302 303 303 298 307 309 312 314 314 315 317 318 320 322 326 329 331 334 339 341 347 350 355 359 3 5 7 6 3 1 3 4 357 355 354
277 280 283 292 295 294 304 317 319 311 310 309 311 314 312 315 320 320 318 316 316 318 319 323 328 334 337 341 346 352 357 2 7 9 3 6 8 6 5 8 6 6 7 5
274 274 281 286 287 294 306 319 319 314 312 318 318 322 321 320 318 315 320 324 322 329 334 338 337 339 344 350 355 2 5 2 360 0 5 4 6 10 9 8 4 5 5 6
271 272 275 286 289 295 315 327 329 323 306 317 319 317 317 319 312 316 329 341 349 355 352 346 345 345 349 352 356 356 349 350 357 0 357 357 360 3 4 0 359 358 360 2
264 271 273 282 289 301 320 323 322 312 320 342 336 329 320 315 320 340 356 1 9 11 7 359 347 334 313 308 316 328 337 348 346 351 354 1 0 359 356 354 358 358 358 360
266 273 279 285 293 300 327 320 314 333 346 342 337 334 331 332 347 11 27 37 46 25 360 355 323 310 302 308 315 322 333 325 329 328 355 2 357 354 353 355 356 357 1 3
270 279 284 290 307 321 321 323 335 340 340 341 345 347 354 4 16 57 68 61 49 357 8 347 317 299 290 280 272 316 311 310 320 337 345 352 352 354 358 3 3 6 5 5
279 285 290 301 308 312 322 329 335 338 343 352 358 12 29 38 54 64 65 41 27 7 4 334 300 272 247 246 280 298 303 303 325 339 343 346 359 8 14 17 15 11 6 6
282 288 298 303 307 318 324 333 340 348 358 2 14 37 65 75 63 65 58 31 26 13 332 297 244 235 241 280 297 279 305 311 337 346 350 360 9 16 19 19 15 14 11 11
282 293 296 303 326 327 347 7 15 17 5 25 42 45 61 76 65 43 7 1 357 325 264 243 242 256 278 270 294 311 328 346 354 2 9 10 16 18 21 20 17 15 14 12